Weather History for White Plains, NY

Change the Weather History Date:

Wednesday, August 7, 2013

  Actual Average Record
Temperature  
Mean Temperature 68 °F -  
Max Temperature 77 °F 80 °F 95 °F (2001)
Min Temperature 62 °F 63 °F 55 °F (1979)
Cooling Degree Days 4    
Growing Degree Days 18 (Base 50)    
Moisture  
Dew Point 62 °F    
Average Humidity 77    
Maximum Humidity 90    
Minimum Humidity 61    
Precipitation  
Precipitation 0.00 in - - ()
Sea Level Pressure  
Sea Level Pressure 30.12 in    
Wind  
Wind Speed 4 mph (SE)    
Max Wind Speed 12 mph    
Max Gust Speed 20 mph    
Visibility 10 miles    
Events      
Averages and records for this station are not official NWS values.
T = Trace of Precipitation, MM = Missing Value Source: NWS Daily Summary

Daily Weather History Graph

Daily Weather History Graph

Search for Another Location

Airport:

Trip Planner

Search our weather history database for the weather conditions in past years. The results will help you decide how hot, cold, wet, or windy it might be!

Date:

Astronomy

Aug. 07, 2013 Rise Set
Actual Time 5:56 AM EDT 8:03 PM EDT
Civil Twilight 5:26 AM EDT 8:33 PM EDT
Nautical Twilight 4:49 AM EDT 9:10 PM EDT
Astronomical Twilight 4:08 AM EDT 9:51 PM EDT
Moon 6:43 AM EDT (8/7) 8:08 PM EDT (8/7)
Length of Visible Light 15h 07m
Length of Day
14h 07m
New Moon, 1% of the Moon is Illuminated
Aug 7
New Moon
Aug 14
First Quarter
Aug 20
Full
Aug 28
Last Quarter
Sep 5
New

Hourly Weather History & Observations

Time (EDT) Temp. Dew Point Humidity Pressure Visibility Wind Dir Wind Speed Gust Speed Precip Events Conditions
12:56 AM 62.1 °F 59.0 °F 90% 30.13 in 10.0 mi Calm Calm - N/A   Clear
1:56 AM 64.0 °F 59.0 °F 84% 30.13 in 10.0 mi Calm Calm - N/A   Overcast
2:56 AM 64.0 °F 60.1 °F 87% 30.13 in 10.0 mi Calm Calm - N/A   Overcast
3:56 AM 62.1 °F 57.9 °F 86% 30.12 in 10.0 mi Calm Calm - N/A   Scattered Clouds
4:56 AM 62.1 °F 59.0 °F 90% 30.13 in 10.0 mi Calm Calm - N/A   Clear
5:56 AM 63.0 °F 59.0 °F 87% 30.14 in 10.0 mi Calm Calm - N/A   Mostly Cloudy
6:56 AM 64.9 °F 60.1 °F 84% 30.15 in 10.0 mi East 3.5 mph - N/A   Mostly Cloudy
7:56 AM 66.0 °F 60.1 °F 81% 30.15 in 10.0 mi ESE 3.5 mph - N/A   Mostly Cloudy
8:56 AM 70.0 °F 60.1 °F 71% 30.14 in 10.0 mi SE 11.5 mph - N/A   Overcast
9:56 AM 71.1 °F 61.0 °F 70% 30.14 in 10.0 mi SE 10.4 mph - N/A   Mostly Cloudy
10:56 AM 71.1 °F 60.1 °F 68% 30.15 in 10.0 mi SE 9.2 mph - N/A   Mostly Cloudy
11:56 AM 73.0 °F 61.0 °F 66% 30.14 in 10.0 mi SE 8.1 mph - N/A   Overcast
12:56 PM 73.0 °F 59.0 °F 61% 30.14 in 10.0 mi ESE 10.4 mph - N/A   Mostly Cloudy
1:56 PM 73.0 °F 61.0 °F 66% 30.13 in 10.0 mi ESE 6.9 mph - N/A   Overcast
2:56 PM 73.9 °F 62.1 °F 66% 30.12 in 10.0 mi SE 11.5 mph 19.6 mph N/A   Mostly Cloudy
3:56 PM 73.9 °F 63.0 °F 68% 30.11 in 10.0 mi SSE 6.9 mph 17.3 mph N/A   Mostly Cloudy
4:56 PM 75.0 °F 62.1 °F 64% 30.09 in 9.0 mi SSE 9.2 mph 18.4 mph N/A   Mostly Cloudy
5:56 PM 73.0 °F 62.1 °F 68% 30.09 in 10.0 mi SSE 8.1 mph - N/A   Mostly Cloudy
6:56 PM 72.0 °F 63.0 °F 73% 30.08 in 10.0 mi SSE 6.9 mph - N/A   Overcast
7:56 PM 72.0 °F 63.0 °F 73% 30.09 in 10.0 mi SSE 9.2 mph 19.6 mph N/A   Overcast
8:56 PM 71.1 °F 64.9 °F 81% 30.07 in 10.0 mi SSE 9.2 mph - N/A   Overcast
9:56 PM 71.1 °F 66.0 °F 84% 30.09 in 10.0 mi SSE 6.9 mph - N/A   Overcast
10:56 PM 70.0 °F 66.0 °F 87% 30.09 in 10.0 mi SSE 5.8 mph - N/A   Overcast
11:33 PM 69.8 °F 66.2 °F 88% 30.09 in 10.0 mi SSE 6.9 mph - N/A   Mostly Cloudy
11:56 PM 70.0 °F 66.0 °F 87% 30.07 in 10.0 mi SSE 5.8 mph - N/A   Mostly Cloudy